This is the latest recevied weather packets stored in our database for station/object K6CEG. If no packets are shown the sender has not sent any weather packets the latest 10 day(s).
| Time | Temp. | Humidity | Pressure | Rain* | Wind** | Luminosity | Snow |
|---|---|---|---|---|---|---|---|
| 1788101907 | 24.44° C | 65% | 1015.1 hPa | 0 mm | - | 129 W/m² | - |
| 1788101602 | 23.33° C | 67% | 1014.9 hPa | 0 mm | - | 128 W/m² | - |
| 1788101297 | 23.33° C | 66% | 1014.6 hPa | 0 mm | - | 55 W/m² | - |
| 1788100993 | 22.78° C | 66% | 1014.7 hPa | 0 mm | - | 46 W/m² | - |
| 1788100689 | 22.78° C | 66% | 1014.5 hPa | 0 mm | - | 44 W/m² | - |
| 1788100388 | 22.78° C | 66% | 1014.6 hPa | 0 mm | - | 52 W/m² | - |
| 1788100083 | 22.78° C | 66% | 1014.4 hPa | 0 mm | - | 52 W/m² | - |
| 1788099778 | 22.78° C | 67% | 1014.4 hPa | 0 mm | - | 49 W/m² | - |
| 1788099475 | 22.22° C | 67% | 1014.4 hPa | 0 mm | - | 44 W/m² | - |
| 1788099168 | 22.22° C | 69% | 1014.4 hPa | 0 mm | - | 41 W/m² | - |
| 1788098869 | 21.67° C | 71% | 1014.6 hPa | 0 mm | - | 32 W/m² | - |
| 1788098563 | 21.11° C | 72% | 1014.2 hPa | 0 mm | - | 21 W/m² | - |
| 1788098258 | 21.11° C | 72% | 1014.3 hPa | 0 mm | - | 16 W/m² | - |
| 1788097953 | 21.11° C | 72% | 1014.2 hPa | 0 mm | - | 13 W/m² | - |
| 1788097649 | 21.11° C | 72% | 1014.1 hPa | 0 mm | - | 11 W/m² | - |
| 1788097344 | 21.11° C | 71% | 1013.9 hPa | 0 mm | - | 6 W/m² | - |
| 1788097040 | 21.11° C | 71% | 1014 hPa | 0 mm | - | 5 W/m² | - |
| 1788096736 | 21.11° C | 72% | 1013.9 hPa | 0 mm | - | 3 W/m² | - |
| 1788096431 | 21.11° C | 71% | 1013.9 hPa | 0 mm | - | 0 W/m² | - |
| 1788096127 | 21.11° C | 72% | 1013.7 hPa | 0 mm | - | 0 W/m² | - |
| 1788095825 | 21.11° C | 72% | 1013.8 hPa | 0 mm | - | 0 W/m² | - |
| 1788095526 | 21.11° C | 72% | 1013.8 hPa | 0 mm | - | 0 W/m² | - |
| 1788095221 | 21.11° C | 71% | 1013.7 hPa | 0 mm | - | 0 W/m² | - |
| 1788094921 | 21.11° C | 71% | 1013.6 hPa | 0 mm | - | 0 W/m² | - |
| 1788094620 | 21.11° C | 71% | 1013.5 hPa | 0 mm | - | 0 W/m² | - |
* Rain latest hour (hover to see other rain measurements)
** Current wind speed in m/s (hover to see current wind gust speed)